Simultaneous Nadir Overpasses (SNOs) Predictions

Prediction of SNOs between AQUA and NPP Satellite Orbit:

Table of predicted SNOs for the next 14.0 days since TLE Epoch: 5/4/2024
Index Date (AQUA) Time (AQUA) Lat,Lon (AQUA) SZA (AQUA ) Date (NPP) Time (NPP) Lat,Lon (NPP) SZA (NPP ) Distance(km) Time Diff (sec)
1 05/04/2024 07:48:48 -81.22, 165.09 107.95 05/04/2024 07:48:25 -81.22, 165.03 107.93 0.93 23
2 05/04/2024 08:38:09 81.24, -26.83 71.98 05/04/2024 08:39:07 81.24, -26.65 71.92 3.15 58
3 05/06/2024 20:42:17 -81.22, -28.14 108.68 05/06/2024 20:42:18 -81.22, -28.10 108.69 0.75 1
4 05/09/2024 08:46:23 81.21, -29.26 70.66 05/09/2024 08:45:27 81.22, -29.13 70.68 2.13 56
5 05/09/2024 09:35:45 -81.23, 138.61 109.38 05/09/2024 09:36:11 -81.23, 138.71 109.41 1.80 26
6 05/11/2024 21:39:50 81.22, 137.47 70.00 05/11/2024 21:39:20 81.22, 137.60 70.00 2.35 30
7 05/11/2024 22:29:12 -81.23, -54.66 110.04 05/11/2024 22:30:04 -81.24, -54.53 110.09 2.25 52
8 05/14/2024 10:33:15 81.24, -55.44 69.33 05/14/2024 10:33:12 81.24, -55.33 69.31 1.98 3
9 05/16/2024 22:37:18 -81.22, -56.73 111.21 05/16/2024 22:36:22 -81.22, -56.89 111.15 2.81 56



Historial Predications of SNOs between AQUA and NPP
